This is the latest recevied weather packets stored in our database for station/object KI5NXU. If no packets are shown the sender has not sent any weather packets the latest 10 day(s).
| Time | Temp. | Humidity | Pressure | Rain* | Wind** | Luminosity | Snow |
|---|---|---|---|---|---|---|---|
| 1777245148 | 30.56° C | 66% | 1003 hPa | 0 mm | - | 240 W/m² | - |
| 1777244845 | 30.56° C | 66% | 1002.7 hPa | 0 mm | - | 231 W/m² | - |
| 1777244540 | 31.67° C | 64% | 1003 hPa | 0 mm | - | 245 W/m² | - |
| 1777244236 | 31.67° C | 64% | 1002.7 hPa | 0 mm | - | 265 W/m² | - |
| 1777243935 | 31.11° C | 66% | 1002.8 hPa | 0 mm | - | 311 W/m² | - |
| 1777243631 | 31.67° C | 64% | 1003 hPa | 0 mm | - | 294 W/m² | - |
| 1777243329 | 31.11° C | 65% | 1003.2 hPa | 0 mm | - | 310 W/m² | - |
| 1777243023 | 31.67° C | 64% | 1003.2 hPa | 0 mm | - | 326 W/m² | - |
| 1777242721 | 31.67° C | 65% | 1003 hPa | 0 mm | - | 336 W/m² | - |
| 1777242416 | 31.11° C | 64% | 1003.3 hPa | 0 mm | - | 382 W/m² | - |
| 1777242113 | 31.11° C | 66% | 1003.2 hPa | 0 mm | - | 369 W/m² | - |
| 1777241811 | 30.56° C | 67% | 1002.8 hPa | 0 mm | - | 407 W/m² | - |
| 1777241508 | 30.56° C | 67% | 1003.1 hPa | 0 mm | - | 401 W/m² | - |
| 1777241206 | 30.56° C | 68% | 1003.2 hPa | 0 mm | - | 437 W/m² | - |
| 1777240903 | 30.56° C | 68% | 1003.2 hPa | 0 mm | - | 472 W/m² | - |
| 1777240601 | 30.56° C | 67% | 1003.4 hPa | 0 mm | - | 441 W/m² | - |
| 1777240298 | 31.11° C | 68% | 1003.2 hPa | 0 mm | - | 455 W/m² | - |
| 1777239995 | 31.11° C | 66% | 1003.6 hPa | 0 mm | - | 495 W/m² | - |
| 1777239692 | 31.11° C | 66% | 1003.4 hPa | 0 mm | - | 494 W/m² | - |
| 1777239389 | 31.11° C | 67% | 1003.6 hPa | 0 mm | - | 476 W/m² | - |
| 1777239086 | 31.67° C | 65% | 1003.8 hPa | 0 mm | - | 462 W/m² | - |
| 1777238783 | 32.22° C | 65% | 1003.8 hPa | 0 mm | - | 501 W/m² | - |
| 1777238480 | 31.67° C | 64% | 1003.9 hPa | 0 mm | - | 484 W/m² | - |
| 1777238176 | 31.67° C | 67% | 1004.1 hPa | 0 mm | - | 562 W/m² | - |
| 1777237874 | 31.67° C | 64% | 1004 hPa | 0 mm | - | 607 W/m² | - |
* Rain latest hour (hover to see other rain measurements)
** Current wind speed in m/s (hover to see current wind gust speed)